EJA870 KIAH-MMGL

Flight info

Callsign EJA870
Flight time N/A
Altitude 45000
Route KIAH/15L RITAA7 CRP J29 MTY UJ11 MEZCA MEZC1B MMGL/PLADE ILS29LX
Aircraft C700/M-SBDGHM1RWXY/LB2

Departure

Time 2026-05-05 20:02
Airport George Bush Intercontinental Airport (KIAH)

Arrival

Time N/A
Airport Guadalajara International Airport (MMGL)
Time Latitude Longitude Altitude Speed Heading
2026-05-05 19:37 29.96767 -95.35182 101 ft 0 kts 292°
2026-05-05 19:51 29.96770 -95.35191 101 ft 4 kts 291°
2026-05-05 19:52 29.96810 -95.35218 101 ft 8 kts 15°
2026-05-05 19:52 29.96830 -95.35191 101 ft 0 kts 62°
2026-05-05 19:55 29.96836 -95.35177 101 ft 6 kts 64°
2026-05-05 19:55 29.96884 -95.35130 101 ft 14 kts 351°
2026-05-05 19:56 29.96965 -95.35177 100 ft 14 kts 331°
2026-05-05 19:56 29.97068 -95.35242 100 ft 19 kts 331°
2026-05-05 19:56 29.97200 -95.35320 100 ft 23 kts 332°
2026-05-05 19:56 29.97352 -95.35414 101 ft 26 kts 332°
2026-05-05 19:57 29.97513 -95.35514 101 ft 26 kts 331°
2026-05-05 19:57 29.97622 -95.35580 101 ft 28 kts 331°
2026-05-05 19:57 29.97863 -95.35728 101 ft 30 kts 331°
2026-05-05 19:57 29.98035 -95.35834 100 ft 25 kts 332°
2026-05-05 19:58 29.98178 -95.35922 101 ft 24 kts 331°
2026-05-05 19:58 29.98311 -95.36045 101 ft 26 kts 304°
2026-05-05 19:58 29.98447 -95.36143 101 ft 17 kts 332°
2026-05-05 19:58 29.98552 -95.36208 102 ft 17 kts 332°
2026-05-05 19:59 29.98662 -95.36272 102 ft 18 kts 340°
2026-05-05 19:59 29.98736 -95.36211 102 ft 15 kts 63°
2026-05-05 19:59 29.98741 -95.36116 102 ft 0 kts 155°
2026-05-05 20:01 29.98724 -95.36107 102 ft 19 kts 155°
2026-05-05 20:01 29.98302 -95.35848 101 ft 118 kts 153°
2026-05-05 20:01 29.97400 -95.35280 670 ft 152 kts 154°
2026-05-05 20:02 29.96694 -95.34866 2477 ft 90 kts 166°
2026-05-05 20:02 29.96228 -95.34520 1381 ft 77 kts 86°